Regional Weather Roundup
Issued by NWS

Home | Current Version | Previous Version | Graphics & Text | Print | Product List | Glossary On
Versions: 1 2 3 4 5 6 7 8 9 10 11 12 13 14 15 16 17 18 19 20 21 22 23 24 25 26 27 28 29 30 31 32 33 34 35 36 37 38 39 40 41 42 43 44 45 46 47 48 49 50
000
ASUS45 KSLC 230210
RWRUT

UTAH REGIONAL WEATHER ROUNDUP
NATIONAL WEATHER SERVICE SALT LAKE CITY UT
700 PM MST SUN JAN 22 2017

UTZ001>011-023>025-230300-

NORTHERN UTAH

CITY           SKY/WX    TMP DP  RH WIND       PRES   REMARKS
BRIGHAM CITY     N/A     34  31  90 SW6       29.78S WCI  28
HILL AFB       LGT SNOW  32  32 100 S15       29.75F FOG     WCI  22
LOGAN          LGT SNOW  29  28  96 NE7       29.76S FOG     WCI  22
OGDEN          LGT SNOW  32  31  96 SE7       29.75F FOG     WCI  26
SALT LAKE CITY CLOUDY    36  27  69 S17G25    29.74F WCI  26
TOOELE VALLEY  CLOUDY    41  30  65 S21G29    29.71F
WENDOVER       CLOUDY    30  28  93 CALM      29.71F
HEBER CITY     LGT SNOW  27  27 100 CALM      29.79F
WEST JORDAN    CLOUDY    33  32  94 S16       29.77S WCI  23

$$

UTZ011>015-024>027-230300-

CENTRAL/NORTHEAST UTAH

CITY           SKY/WX    TMP DP  RH WIND       PRES   REMARKS
PROVO AIRPORT  CLOUDY    35  26  69 SE18      29.80F WCI  24
MOAB/CANYONLAN FLURRIES  33  31  92 SE13      29.96F WCI  24
DELTA          CLOUDY    36  30  80 S14       29.76F WCI  27
PRICE          LGT SNOW  26  25  96 E3        29.91F FOG
RICHFIELD      PTCLDY    36  27  69 S3        29.83S
ROOSEVELT      LGT SNOW  27  23  86 SE3       29.97S
VERNAL         LGT SNOW  22  20  92 CALM      29.94F FOG

$$

UTZ013>016-019>022-027-230300-

SOUTHERN UTAH

CITY           SKY/WX    TMP DP  RH WIND       PRES   REMARKS
BRYCE CANYON   SNOW      24  22  91 SE20G26   29.92F VSB 1/2 WCI  10
CEDAR CITY     CLOUDY    38  27  64 SW17G51   29.83R WCI  28
MILFORD        CLOUDY    35  30  82 S15       29.82F WCI  25
ST GEORGE      CLOUDY    39  36  87 E9        30.01S WCI  33
HANKSVILLE     CLOUDY    36  32  87 MISG      29.97S
KANAB          CLOUDY    34  34 100 CALM      30.03F FOG
BLANDING       CLOUDY    29  29 100 S8        30.13S WCI  21

$$

REGIONAL REPORTS     COLORADO/ARIZONA

CITY           SKY/WX    TMP DP  RH WIND       PRES   REMARKS
CRAIG, CO      CLOUDY    25  16  68 CALM      29.92F
GRAND JUNCTION CLOUDY    33  29  85 W7        29.99R WCI  27
RIFLE, CO      CLOUDY    32  25  75 W10       29.97F WCI  24
MONTROSE, CO   CLOUDY    33  24  69 SE9       30.01F WCI  25
CORTEZ, CO     LGT SNOW  29  26  89 CALM      30.08S FOG
COLORADO CITY  LGT SNOW  34  34 100 E7        30.01R WCI  28
PAGE, AZ       LGT RAIN  39  31  72 S7        29.99F WCI  34
GRAND CANYON   LGT SNOW  29  29 100 S10       30.03F FOG     WCI  20
KINGMAN, AZ    CLOUDY    45  29  53 SE20      29.99F
FLAGSTAFF, AZ  CLOUDY    28  28 100 SW13      30.06F FOG     WCI  17

$$

REGIONAL REPORTS    NEVADA/IDAHO/WYOMING

CITY           SKY/WX    TMP DP  RH WIND       PRES   REMARKS
LAS VEGAS, NV  LGT RAIN  46  41  82 CALM      29.90F
ELY, NY        MIX PCPN  30  26  85 S24G37    29.66S WCI  16
ELKO, NV       LGT SNOW  33  30  88 W5        29.65S FOG     WCI  29
POCATELLO, ID  CLOUDY    35  26  69 S23G32    29.67F WCI  23
BURLEY, ID     FLURRIES  37  27  67 SW20G28   29.66R WCI  27
FORT BRIDGER,  CLOUDY    17  17 100 CALM      29.78F
EVANSTON, WY   LGT SNOW  22  18  85 NE7       29.74R VSB 1   WCI  13
ROCK SPRINGS,  LGT SNOW  26  20  77 S12       29.77F WCI  16

$$



USA.gov is the U.S. government's official web portal to all federal, state and local government web resources and services.